Powrót do katalogu

COSMOS 2510

AktywnyNawigacjaHEO
NORAD 41032·PAYLOAD·🇷🇺 Russia

Wystrzelony Nov 17, 2015 z Plesetsk Cosmodrome

Loading…

Następne Przeloty (najbliższe 24 godziny)

TLE

ŚwieżeSource: Space-Track

Epoka: Sep 10, 2026, 02:30 UTC

1 41032U 15066A   26253.10460074 -.00001250  00000-0  00000-0 0  9997
2 41032  63.4454 334.4571 7192891 274.8701  14.0011  2.00671985 79170

Śledź COSMOS 2510 w czasie rzeczywistym z AllMySat

Download on the App Store